{"data":{"norad_id":60045,"epoch":"2026-09-21T19:15:09.813024Z","epoch_age_seconds":64811,"freshness":"FRESH","line1":"1 60045U 24112H   26264.80219691  .00002610  00000+0  26421-4 0  9998","line2":"2 60045  53.1579  19.4351 0001238 109.6428 250.4724 15.69688798131785","mean_motion":15.69688798,"eccentricity":0.0001238,"inclination_deg":53.1579,"raan_deg":19.4351,"arg_perigee_deg":109.6428,"mean_anomaly_deg":250.4724,"bstar":2.6421e-5,"rev_number":13178,"period_min":91.737929316611,"perigee_km":358.95326806742,"apogee_km":360.62157815459,"semimajor_km":6737.924423111,"source":"CELESTRAK","updated_at":"2026-09-22T09:00:49.143212Z"}}